Home > Weather > Durango > Past weeks

Flag for USA Past Weather in Durango, Colorado, USA — Yesterday and Last 2 Weeks

Now
38 °F

Clear.


Feels Like: 31 °F
Forecast: 36 / 67 °F
Wind: 10 mph from North

Location: Durango-La Plata County Airport

Current Time: May 28, 2016 at 4:01:42 AM

Latest Report: May 28, 2016 at 2:53 AM


Visibility: 10 mi

Pressure: 29.94 "Hg (23.42 "Hg at 1989m altitude)

Humidity: 76%

Dew Point: 31 °F

Location of DurangoLocation

Past Weather in Durango — Graph

°F

Durango Temperature Yesterday

Maximum temperature yesterday: 63 °F (at 2:53 PM)
Minimum temperature yesterday: 39 °F (at 6:53 AM)
Average temperature yesterday: 51 °F

High & Low Weather Summary for the Past Weeks

 TemperatureHumidityPressure
High77 °F (May 13, 3:53 PM)97% (May 19, 12:53 AM)30.25 "Hg (May 19, 12:53 AM)
Low32 °F (May 13, 3:53 AM)8% (May 25, 4:53 PM)29.63 "Hg (May 16, 1:53 AM)
Average53 °F48%29.91 "Hg
* Reported May 13 1:53 AM — May 28 1:53 AM, Durango, Weather by CustomWeather, © 2016

Note: Actual official high and low records may vary slightly from our data, if they occured in-between our weather recording intervals... More about our weather records

Advertising

Durango Weather History for the Previous 24 Hours

Scroll right to see more
 ConditionsComfort  
Time TempWeatherWind HumidityBarometerVisibility
1:53 AM
Sat, May 28
37 °FClear.No wind79%29.97 "Hg10 mi
12:53 AM40 °FPassing clouds.6 mph73%29.95 "Hg10 mi
11:53 PM
Fri, May 27
39 °FPassing clouds.No wind73%29.93 "Hg10 mi
10:53 PM45 °FClear.3 mph58%29.90 "Hg10 mi
9:53 PM47 °FClear.3 mph54%29.90 "Hg10 mi
8:53 PM50 °FSunny.5 mph50%29.87 "Hg10 mi
7:53 PM54 °FSunny.14 mph41%29.85 "Hg10 mi
6:53 PM57 °FScattered clouds.12 mph37%29.86 "Hg10 mi
5:53 PM56 °FPartly sunny.15 mph40%29.83 "Hg10 mi
4:53 PM59 °FMostly cloudy.16 mph36%29.79 "Hg10 mi
3:53 PM62 °FPassing clouds.15 mph30%29.75 "Hg10 mi
2:53 PM63 °FSunny.10 mph37%29.75 "Hg10 mi
1:53 PM56 °FPassing clouds.No wind51%29.79 "Hg10 mi
12:53 PM56 °FLight rain. Mostly cloudy.3 mph42%29.80 "Hg9 mi
11:53 AM60 °FBroken clouds.14 mph30%29.78 "Hg10 mi
10:53 AM61 °FSunny.9 mph32%29.78 "Hg10 mi
9:53 AM56 °FSunny.No wind40%29.81 "Hg10 mi
8:53 AM52 °FSunny.3 mph49%29.83 "Hg10 mi
7:53 AM47 °FSunny.5 mph59%29.84 "Hg10 mi
6:53 AM39 °FClear.No wind76%29.84 "Hg10 mi
5:53 AM43 °FClear.No wind62%29.79 "Hg10 mi
4:53 AM44 °FClear.No wind58%29.77 "Hg10 mi
Weather by CustomWeather, © 2016

See weather overviewHow to use our weather pages